Location: Bouillancy
(49.1149°N, 2.9308°E)
Time: 08:11:00
(UTC+00:00)

Cosmos 1626 - Pass Details

Date: 30 September 2020
Orbit: 490 x 495 km, 82.5° (Epoch: 29 October)

Event Time Altitude Azimuth Distance (km) Brightness Sun altitude
Rises 18:57:47 0° 348° (NNW) 2,586 6.1 -15.4°
Reaches altitude 10° 18:59:54 10° 347° (NNW) 1,697 5.2 -15.7°
Maximum altitude 19:03:36 73° 263° (W) 519 2.3 -16.3°
Drops below altitude 10° 19:07:16 10° 178° (S) 1,680 4.6 -16.9°
Enters shadow 19:08:16 - 177° (S) 2,091 5.1 -17.0°
